Flag for Ukraine Weather past 2 weeks in Kryvyi Rih, Ukraine

Now
27 °F

Passing clouds.


Feels Like: 18 °F
Forecast: 24 / 42 °F
Wind: 8 mph from East

Location: Krivyy Rih / Dnipropetrovs'k

Current Time: Oct 26, 2014 at 9:00:53 AM

Latest Report: Oct 26, 2014 at 8:30 AM


Visibility: N/A

Pressure: 30.57 "Hg

Humidity: 54%

Dew point: 12 °F

Location of Kryvyi RihLocation

Historic Weather in Kryvyi Rih — Graph

°F

Kryvyi Rih temperature yesterday

Maximum temperature yesterday: 37 °F (at 4:00 PM)
Minimum temperature yesterday: 23 °F (at 5:00 AM)
Average temperature yesterday: 29 °F

Past Weeks' High & Low Weather Summary

 TemperatureHumidityPressure
High70 °F (Oct 11, 4:00 PM)100% (Oct 15, 6:30 AM)30.57 "Hg (Oct 15, 6:30 AM)
Low23 °F (Oct 25, 5:00 AM)25% (Oct 13, 4:00 PM)29.68 "Hg (Oct 16, 1:00 PM)
Average48 °F72%30.02 "Hg
* Reported Oct 11 9:00 AM — Oct 26 8:00 AM, Kryvyi Rih, Weather by CustomWeather, © 2014

Note: Actual official high and low records may vary slightly from our data, if they occured in-between our weather recording intervals... More about our weather records

Advertising

Kryvyi Rih weather history for previous 24 hours

 ConditionsComfort  
Time TempWeatherWind HumidityBarometerVisibility
8:00 AM
Oct 26
27 °FPassing clouds.10 mph54%30.57 "HgN/A
7:30 AM23 °FPassing clouds.6 mph63%30.57 "HgN/A
7:00 AM23 °FPassing clouds.8 mph63%30.57 "HgN/A
6:30 AM23 °FPassing clouds.8 mph63%30.57 "HgN/A
6:00 AM23 °FPassing clouds.8 mph63%30.57 "HgN/A
5:30 AM23 °FPassing clouds.6 mph63%30.57 "HgN/A
5:00 AM23 °FPassing clouds.6 mph63%30.57 "HgN/A
4:30 AM25 °FPassing clouds.8 mph59%30.54 "HgN/A
4:00 AM25 °FPassing clouds.10 mph59%30.54 "HgN/A
3:30 AM25 °FPassing clouds.10 mph59%30.54 "HgN/A
3:00 AM25 °FPassing clouds.10 mph59%30.54 "HgN/A
3:30 AM27 °FPassing clouds.10 mph54%30.54 "HgN/A
3:00 AM27 °FPassing clouds.13 mph54%30.54 "HgN/A
2:30 AM27 °FPassing clouds.13 mph59%30.54 "HgN/A
2:00 AM27 °FPassing clouds.13 mph59%30.54 "HgN/A
1:30 AM28 °FPassing clouds.13 mph55%30.54 "HgN/A
1:00 AM28 °FPassing clouds.15 mph55%30.54 "HgN/A
12:30 AM28 °FPassing clouds.15 mph55%30.51 "HgN/A
12:00 AM28 °FPassing clouds.15 mph55%30.54 "HgN/A
11:30 PM
Oct 25
30 °FPassing clouds.15 mph51%30.54 "HgN/A
11:00 PM30 °FPassing clouds.13 mph51%30.54 "HgN/A
10:30 PM28 °FPassing clouds.13 mph64%30.51 "HgN/A
10:00 PM28 °FPassing clouds.13 mph64%30.51 "HgN/A
9:30 PM30 °FPassing clouds.10 mph59%30.51 "HgN/A
9:00 PM30 °FPassing clouds.8 mph59%30.51 "HgN/A
8:30 PM30 °FPassing clouds.8 mph59%30.51 "HgN/A
8:00 PM30 °FPassing clouds.8 mph59%30.51 "HgN/A
7:30 PM32 °FPassing clouds.8 mph55%30.48 "HgN/A
7:00 PM32 °FPassing clouds.8 mph55%30.48 "HgN/A
6:30 PM34 °FPassing clouds.8 mph51%30.48 "HgN/A
6:00 PM34 °FPassing clouds.6 mph51%30.48 "HgN/A
5:30 PM36 °FPassing clouds.8 mph48%30.48 "HgN/A
5:00 PM36 °FPassing clouds.8 mph48%30.48 "HgN/A
4:30 PM37 °FPassing clouds.13 mph45%30.48 "HgN/A
4:00 PM37 °FPassing clouds.10 mph45%30.48 "HgN/A
3:30 PM36 °FPassing clouds.15 mph52%30.48 "HgN/A
3:00 PM36 °FSunny.15 mph52%30.48 "Hg10 mi
2:30 PM34 °FPassing clouds.13 mph56%30.48 "HgN/A
2:00 PM34 °FPassing clouds.13 mph56%30.48 "HgN/A
1:30 PM32 °FPassing clouds.15 mph60%30.51 "HgN/A
1:00 PM30 °FPassing clouds.10 mph69%30.51 "HgN/A
12:30 PM30 °FPassing clouds.13 mph69%30.51 "HgN/A
12:00 PM30 °FPassing clouds.13 mph69%30.51 "HgN/A
11:30 AM28 °FPassing clouds.13 mph74%30.51 "HgN/A
11:00 AM28 °FPassing clouds.13 mph74%30.51 "HgN/A
10:30 AM27 °FPassing clouds.15 mph74%30.51 "HgN/A
10:00 AM27 °FPassing clouds.15 mph74%30.51 "HgN/A
9:30 AM25 °FPassing clouds.15 mph80%30.51 "HgN/A
9:00 AM25 °FPassing clouds.13 mph80%30.51 "HgN/A
Weather by CustomWeather, © 2014

See weather overviewHow to use our weather pages